Weather History for Morristown, NJ

Change the Weather History Date:

Tuesday, September 17, 2013

  Actual Average Record
Temperature  
Mean Temperature 54 °F -  
Max Temperature 64 °F 75 °F 93 °F (1991)
Min Temperature 44 °F 52 °F 35 °F (1935)
Degree Days  
Heating Degree Days 11    
Growing Degree Days 4 (Base 50)    
Moisture  
Dew Point 41 °F    
Average Humidity 66    
Maximum Humidity 93    
Minimum Humidity 40    
Precipitation  
Precipitation 0.00 in - - ()
Sea Level Pressure  
Sea Level Pressure 30.36 in    
Wind  
Wind Speed 6 mph (NNE)    
Max Wind Speed 13 mph    
Max Gust Speed 22 mph    
Visibility 10 miles    
Events      
Averages and records for this station are not official NWS values.
T = Trace of Precipitation, MM = Missing Value Source: NWS Daily Summary

Daily Weather History Graph

Daily Weather History Graph

Search for Another Location

Airport:

Trip Planner

Search our weather history database for the weather conditions in past years. The results will help you decide how hot, cold, wet, or windy it might be!

Date:

Astronomy

Sep. 17, 2013 Rise Set
Actual Time 6:40 AM EDT 7:02 PM EDT
Civil Twilight 6:13 AM EDT 7:30 PM EDT
Nautical Twilight 5:40 AM EDT 8:02 PM EDT
Astronomical Twilight 5:07 AM EDT 8:35 PM EDT
Moon 5:48 PM EDT (9/17) 4:31 AM EDT (9/17)
Length of Visible Light 13h 17m
Length of Day
12h 22m
Waxing Gibbous, 96% of the Moon is Illuminated
Sep 17
Waxing Gibbous
Sep 19
Full
Sep 26
Last Quarter
Oct 4
New
Oct 11
First Quarter

Hourly Weather History & Observations

Time (EDT) Temp. Windchill Dew Point Humidity Pressure Visibility Wind Dir Wind Speed Gust Speed Precip Events Conditions
12:15 AM 59.0 °F - 48.2 °F 67% 30.26 in 10.0 mi North 8.1 mph - N/A   Mostly Cloudy
12:35 AM 59.0 °F - 48.2 °F 67% 30.28 in 10.0 mi NE 10.4 mph - N/A   Overcast
12:55 AM 57.2 °F - 46.4 °F 67% 30.29 in 10.0 mi NE 10.4 mph - N/A   Overcast
1:15 AM 55.4 °F - 46.4 °F 72% 30.29 in 10.0 mi NNE 10.4 mph 17.3 mph N/A   Overcast
1:35 AM 55.4 °F - 44.6 °F 67% 30.30 in 10.0 mi NNE 6.9 mph - N/A   Overcast
1:55 AM 53.6 °F - 42.8 °F 67% 30.30 in 10.0 mi NNE 9.2 mph - N/A   Scattered Clouds
2:15 AM 51.8 °F - 41.0 °F 67% 30.31 in 10.0 mi NNE 6.9 mph - N/A   Clear
2:35 AM 51.8 °F - 41.0 °F 67% 30.32 in 10.0 mi NNE 5.8 mph - N/A   Clear
2:55 AM 51.8 °F - 39.2 °F 62% 30.33 in 10.0 mi NNE 4.6 mph - N/A   Clear
3:15 AM 50.0 °F - 39.2 °F 66% 30.33 in 10.0 mi NNE 9.2 mph - N/A   Clear
3:35 AM 50.0 °F - 37.4 °F 62% 30.33 in 10.0 mi NNE 5.8 mph - N/A   Clear
3:55 AM 50.0 °F - 37.4 °F 62% 30.33 in 10.0 mi NNE 3.5 mph - N/A   Clear
4:15 AM 50.0 °F - 37.4 °F 62% 30.34 in 10.0 mi Calm Calm - N/A   Clear
4:35 AM 48.2 °F - 37.4 °F 66% 30.34 in 10.0 mi NNE 3.5 mph - N/A   Clear
4:55 AM 48.2 °F - 37.4 °F 66% 30.35 in 10.0 mi NNE 5.8 mph - N/A   Clear
5:15 AM 48.2 °F - 37.4 °F 66% 30.36 in 10.0 mi Calm Calm - N/A   Unknown
5:35 AM 46.4 °F 45.2 °F 37.4 °F 71% 30.36 in 10.0 mi North 3.5 mph - N/A   Unknown
5:55 AM 48.2 °F - 37.4 °F 66% 30.37 in 10.0 mi North 3.5 mph - N/A   Unknown
6:15 AM 48.2 °F - 37.4 °F 66% 30.38 in 10.0 mi North 3.5 mph - N/A   Unknown
6:35 AM 48.2 °F - 37.4 °F 66% 30.39 in 10.0 mi NNE 3.5 mph - N/A   Unknown
6:45 AM 44.6 °F 41.4 °F 39.2 °F 81% 30.39 in 20.0 mi NNE 5.8 mph - N/A   Clear
7:45 AM 48.2 °F - 39.2 °F 71% 30.42 in 20.0 mi NE 8.1 mph - N/A   Clear
8:45 AM 51.8 °F - 39.2 °F 62% 30.44 in 15.0 mi NE 12.7 mph 21.9 mph N/A   Clear
9:45 AM 55.4 °F - 37.4 °F 51% 30.45 in 10.0 mi ENE 11.5 mph 21.9 mph N/A   Clear
10:45 AM 57.2 °F - 37.4 °F 48% 30.46 in 10.0 mi NNE 12.7 mph 17.3 mph N/A   Clear
11:45 AM 59.0 °F - 37.4 °F 45% 30.45 in 10.0 mi NE 6.9 mph 16.1 mph N/A   Clear
12:45 PM 60.8 °F - 39.2 °F 45% 30.43 in 10.0 mi North 8.1 mph - N/A   Clear
1:45 PM 62.6 °F - 39.2 °F 42% 30.41 in 10.0 mi Calm Calm - N/A   Clear
2:45 PM 64.4 °F - 39.2 °F 40% 30.39 in 10.0 mi NE 10.4 mph - N/A   Clear
3:45 PM 64.4 °F - 39.2 °F 40% 30.37 in 10.0 mi NE 8.1 mph 16.1 mph N/A   Clear
4:45 PM 64.4 °F - 41.0 °F 42% 30.37 in 10.0 mi NNE 5.8 mph - N/A   Clear
5:45 PM 62.6 °F - 42.8 °F 48% 30.36 in 10.0 mi ENE 4.6 mph - N/A   Clear
6:45 PM 53.6 °F - 44.6 °F 72% 30.36 in 10.0 mi ENE 4.6 mph - N/A   Clear
7:45 PM 50.0 °F - 44.6 °F 82% 30.35 in 10.0 mi Calm Calm - N/A   Clear
8:45 PM 46.4 °F - 42.8 °F 87% 30.37 in 10.0 mi Calm Calm - N/A   Clear
9:45 PM 44.6 °F - 42.8 °F 93% 30.37 in 10.0 mi Calm Calm - N/A   Clear
10:55 PM 44.6 °F - 41.0 °F 87% 30.37 in 10.0 mi Calm Calm - N/A   Unknown
11:15 PM 44.6 °F - 42.8 °F 93% 30.37 in 7.0 mi Calm Calm - N/A   Unknown
11:35 PM 44.6 °F - 41.0 °F 87% 30.37 in 10.0 mi Calm Calm - N/A   Unknown
11:55 PM 44.6 °F - 41.0 °F 87% 30.37 in 10.0 mi Calm Calm - N/A   Unknown